| time (UTC) | temp F | wind direction | speed knots | gust knots | rain 1hr in | rain 24hr in | rain mn in | humidity % | barometer mb |
| 20260903075524 | 69 | 154 | 1.7 | 4.3 | 0.00 | 0.32 | 0.00 | 99 | 1021.4 |
| 20260903074530 | 69 | 139 | 2.6 | 3.5 | 0.00 | 0.32 | 0.00 | 99 | 1021.1 |
| 20260903073517 | 70 | 263 | 3.5 | 6.1 | 0.00 | 0.32 | 0.00 | 99 | 1021.4 |
| 20260903072522 | 69 | 317 | 2.6 | 4.3 | 0.00 | 0.32 | 0.00 | 99 | 1020.4 |
| 20260903071527 | 69 | 0.0 | 0.0 | 0.00 | 0.32 | 0.00 | 99 | 1020.2 | |
| 20260903070532 | 69 | 0.0 | 0.0 | 0.00 | 0.32 | 0.00 | 99 | 1020.1 | |
| 20260903065539 | 69 | 180 | 0.0 | 1.7 | 0.00 | 0.32 | 0.00 | 99 | 1020.1 |
| 20260903064524 | 69 | 191 | 0.9 | 1.7 | 0.00 | 0.32 | 0.00 | 99 | 1020.5 |
| 20260903063529 | 69 | 0.0 | 0.0 | 0.00 | 0.32 | 0.00 | 99 | 1020.3 | |
| 20260903062516 | 69 | 0.0 | 0.0 | 0.00 | 0.32 | 0.00 | 99 | 1020.5 | |
| 20260903061521 | 69 | 0.0 | 0.0 | 0.00 | 0.32 | 0.00 | 99 | 1020.5 | |
| 20260903060526 | 69 | 0.0 | 0.0 | 0.00 | 0.32 | 0.00 | 99 | 1020.5 | |
| 20260903055531 | 69 | 0.0 | 0.9 | 0.00 | 0.32 | 0.00 | 99 | 1020.5 | |
| 20260903054518 | 69 | 0.0 | 0.0 | 0.00 | 0.32 | 0.00 | 99 | 1020.5 | |
| 20260903053524 | 69 | 234 | 0.9 | 1.7 | 0.00 | 0.32 | 0.00 | 99 | 1020.6 |
| 20260903052529 | 69 | 308 | 0.9 | 3.5 | 0.00 | 0.32 | 0.00 | 99 | 1020.6 |
| 20260903051515 | 69 | 295 | 0.9 | 1.7 | 0.00 | 0.32 | 0.00 | 99 | 1020.6 |
| 20260903050520 | 69 | 45 | 0.0 | 0.9 | 0.00 | 0.32 | 0.00 | 99 | 1020.5 |
| 20260903045546 | 69 | 189 | 1.7 | 3.5 | 0.00 | 0.32 | 0.00 | 99 | 1020.9 |
| 20260903044530 | 69 | 0.0 | 0.0 | 0.00 | 0.32 | 0.00 | 99 | 1020.6 | |
| 20260903043517 | 69 | 0.0 | 0.9 | 0.00 | 0.32 | 0.00 | 99 | 1020.4 | |
| 20260903042522 | 69 | 0.0 | 0.0 | 0.00 | 0.32 | 0.00 | 99 | 1020.6 | |
| 20260903041527 | 69 | 0.0 | 0.0 | 0.00 | 0.32 | 0.00 | 99 | 1020.7 | |
| 20260903040532 | 69 | 158 | 0.0 | 1.7 | 0.00 | 0.32 | 0.00 | 99 | 1020.8 |
| 20260903035519 | 69 | 0.0 | 0.0 | 0.00 | 0.32 | 0.32 | 99 | 1020.9 | |
| 20260903034524 | 69 | 0.0 | 0.0 | 0.00 | 0.32 | 0.32 | 99 | 1020.7 | |
| 20260903033548 | 70 | 0.0 | 0.0 | 0.00 | 0.32 | 0.32 | 99 | 1020.8 | |
| 20260903032516 | 70 | 0.0 | 0.0 | 0.00 | 0.32 | 0.32 | 99 | 1021.1 | |
| 20260903031520 | 70 | 0.0 | 0.0 | 0.00 | 0.32 | 0.32 | 99 | 1021.0 | |
| 20260903030525 | 70 | 0.0 | 0.0 | 0.00 | 0.32 | 0.32 | 99 | 1020.8 | |
| 20260903025524 | 70 | 180 | 0.0 | 1.7 | 0.00 | 0.32 | 0.32 | 99 | 1021.1 |
| 20260903024517 | 70 | 0.0 | 0.0 | 0.00 | 0.32 | 0.32 | 99 | 1021.0 | |
| 20260903023522 | 70 | 0.0 | 0.0 | 0.00 | 0.32 | 0.32 | 99 | 1020.6 | |
| 20260903022521 | 70 | 0.0 | 0.0 | 0.00 | 0.32 | 0.32 | 99 | 1020.4 | |
| 20260903021520 | 70 | 0.0 | 0.0 | 0.00 | 0.32 | 0.32 | 99 | 1020.4 | |
| 20260903020559 | 71 | 0.0 | 0.0 | 0.00 | 0.32 | 0.32 | 99 | 1020.4 | |
| 20260903015538 | 71 | 0.0 | 0.0 | 0.00 | 0.32 | 0.32 | 99 | 1020.5 | |
| 20260903014517 | 71 | 135 | 0.0 | 1.7 | 0.00 | 0.32 | 0.32 | 99 | 1020.9 |
| 20260903013516 | 71 | 163 | 0.9 | 1.7 | 0.00 | 0.32 | 0.32 | 99 | 1020.8 |
| 20260903012521 | 71 | 0.0 | 0.0 | 0.00 | 0.32 | 0.32 | 99 | 1020.7 | |
| 20260903011526 | 71 | 0.0 | 0.0 | 0.00 | 0.32 | 0.32 | 99 | 1020.7 | |
| 20260903010531 | 72 | 0.0 | 0.9 | 0.00 | 0.32 | 0.32 | 99 | 1020.6 | |
| 20260903005558 | 72 | 0.0 | 0.0 | 0.00 | 0.32 | 0.32 | 99 | 1020.3 | |
| 20260903004523 | 73 | 0.0 | 0.0 | 0.00 | 0.32 | 0.32 | 99 | 1020.2 | |
| 20260903003548 | 73 | 127 | 0.9 | 1.7 | 0.00 | 0.32 | 0.32 | 99 | 1020.5 |
| 20260903002553 | 73 | 0.0 | 0.0 | 0.00 | 0.32 | 0.32 | 99 | 1020.7 | |
| 20260903001520 | 74 | 0.0 | 0.9 | 0.00 | 0.32 | 0.32 | 99 | 1020.8 | |
| 20260903000524 | 74 | 188 | 0.0 | 1.7 | 0.00 | 0.32 | 0.32 | 99 | 1020.8 |
| 20260902235529 | 75 | 0.0 | 0.0 | 0.00 | 0.32 | 0.32 | 99 | 1020.6 | |
| 20260902234517 | 76 | 315 | 0.0 | 1.7 | 0.00 | 0.32 | 0.32 | 99 | 1020.8 |
| 20260902233521 | 76 | 0.0 | 0.0 | 0.00 | 0.32 | 0.32 | 99 | 1021.0 | |
| 20260902232525 | 76 | 0.0 | 0.0 | 0.00 | 0.32 | 0.32 | 99 | 1021.0 | |
| 20260902231611 | 76 | 0.0 | 0.0 | 0.00 | 0.32 | 0.32 | 99 | 1020.9 | |
| 20260902230538 | 76 | 151 | 1.7 | 3.5 | 0.00 | 0.32 | 0.32 | 99 | 1020.7 |
| 20260902225522 | 77 | 0.0 | 0.0 | 0.00 | 0.32 | 0.32 | 99 | 1020.8 | |
| 20260902224527 | 78 | 0.0 | 0.0 | 0.00 | 0.32 | 0.32 | 98 | 1020.6 | |
| 20260902223553 | 79 | 0.0 | 0.0 | 0.00 | 0.32 | 0.32 | 96 | 1020.5 | |
| 20260902222519 | 80 | 0.0 | 0.0 | 0.00 | 0.32 | 0.32 | 94 | 1020.7 | |
| 20260902221524 | 82 | 0.0 | 0.0 | 0.00 | 0.32 | 0.32 | 90 | 1020.7 | |
| 20260902220530 | 84 | 0.0 | 0.0 | 0.00 | 0.32 | 0.32 | 87 | 1020.7 | |
| 20260902215537 | 87 | 0.0 | 0.0 | 0.00 | 0.32 | 0.32 | 82 | 1020.9 | |
| 20260902214521 | 87 | 279 | 0.9 | 1.7 | 0.00 | 0.32 | 0.32 | 82 | 1021.0 |
| 20260902213526 | 83 | 208 | 0.9 | 2.6 | 0.00 | 0.32 | 0.32 | 89 | 1021.0 |
| 20260902212531 | 83 | 318 | 0.9 | 1.7 | 0.00 | 0.32 | 0.32 | 89 | 1020.9 |
| 20260902211519 | 82 | 198 | 0.9 | 1.7 | 0.00 | 0.32 | 0.32 | 88 | 1020.9 |
| 20260902210523 | 82 | 285 | 1.7 | 1.7 | 0.00 | 0.32 | 0.32 | 89 | 1021.0 |
| 20260902205548 | 0 | 248 | 2.6 | 2.6 | 0.00 | 0.32 | 0.32 | 1021.3 | |
| 20260902204533 | 81 | 270 | 1.7 | 2.6 | 0.00 | 0.32 | 0.32 | 90 | 1021.5 |
| 20260902203520 | 80 | 294 | 1.7 | 2.6 | 0.00 | 0.32 | 0.32 | 93 | 1021.7 |
| 20260902202525 | 80 | 270 | 0.0 | 0.9 | 0.00 | 0.32 | 0.32 | 92 | 1021.4 |
| 20260902201530 | 81 | 0.9 | 1.7 | 0.00 | 0.32 | 0.32 | 96 | 1021.3 | |
| 20260902200516 | 82 | 279 | 1.7 | 3.5 | 0.00 | 0.32 | 0.32 | 89 | 1021.2 |
| 20260902195522 | 82 | 100 | 1.7 | 3.5 | 0.00 | 0.32 | 0.32 | 89 | 1021.1 |
| 20260902194526 | 82 | 307 | 1.7 | 2.6 | 0.00 | 0.32 | 0.32 | 89 | 1021.3 |
| 20260902193531 | 81 | 255 | 1.7 | 2.6 | 0.00 | 0.32 | 0.32 | 88 | 1021.5 |
| 20260902192539 | 81 | 285 | 2.6 | 3.5 | 0.00 | 0.32 | 0.32 | 90 | 1021.6 |
| 20260902191523 | 81 | 264 | 2.6 | 4.3 | 0.00 | 0.32 | 0.32 | 89 | 1021.7 |
| 20260902190529 | 80 | 301 | 1.7 | 3.5 | 0.00 | 0.32 | 0.32 | 89 | 1021.7 |
| 20260902185515 | 79 | 257 | 1.7 | 2.6 | 0.00 | 0.32 | 0.32 | 92 | 1021.7 |
| 20260902184520 | 78 | 233 | 0.9 | 2.6 | 0.00 | 0.32 | 0.32 | 92 | 1021.7 |
| 20260902183525 | 76 | 204 | 0.9 | 1.7 | 0.00 | 0.32 | 0.32 | 97 | 1021.9 |
| 20260902182611 | 75 | 162 | 0.9 | 2.6 | 0.00 | 0.32 | 0.32 | 99 | 1022.1 |
| 20260902181517 | 73 | 194 | 0.9 | 2.6 | 0.02 | 0.32 | 0.32 | 99 | 1022.2 |
| 20260902180522 | 73 | 0.0 | 0.0 | 0.02 | 0.32 | 0.32 | 99 | 1022.4 | |
| 20260902175608 | 71 | 0.0 | 0.0 | 0.04 | 0.32 | 0.32 | 99 | 1022.4 | |
| 20260902174526 | 71 | 0.0 | 0.9 | 0.05 | 0.32 | 0.32 | 99 | 1022.4 | |
| 20260902173539 | 70 | 315 | 0.0 | 1.7 | 0.06 | 0.32 | 0.32 | 99 | 1022.7 |
| 20260902172524 | 70 | 203 | 0.0 | 0.9 | 0.08 | 0.32 | 0.32 | 99 | 1022.8 |
| 20260902171523 | 0 | 0.0 | 0.0 | 0.08 | 0.30 | 0.30 | 1023.0 | ||
| 20260902170516 | 70 | 113 | 0.0 | 1.7 | 0.11 | 0.30 | 0.30 | 99 | 1023.2 |
| 20260902165521 | 70 | 182 | 1.7 | 2.6 | 0.14 | 0.28 | 0.28 | 99 | 1022.9 |
| 20260902164520 | 70 | 98 | 0.0 | 1.7 | 0.27 | 0.27 | 0.27 | 99 | 1023.8 |
| 20260902163518 | 70 | 173 | 1.7 | 2.6 | 0.26 | 0.26 | 0.26 | 99 | 1024.1 |
| 20260902162517 | 71 | 138 | 2.6 | 3.5 | 0.24 | 0.24 | 0.24 | 99 | 1025.0 |
| 20260902161516 | 71 | 240 | 1.7 | 3.5 | 0.22 | 0.22 | 0.22 | 99 | 1025.3 |
| 20260902160515 | 72 | 253 | 0.9 | 2.6 | 0.19 | 0.19 | 0.19 | 99 | 1025.5 |
| 20260902155533 | 73 | 86 | 2.6 | 6.1 | 0.14 | 0.14 | 0.14 | 99 | 1025.8 |
| 20260902154520 | 74 | 260 | 3.5 | 3.5 | 0.00 | 0.00 | 0.00 | 99 | 1024.3 |
| 20260902153524 | 77 | 295 | 4.3 | 7.0 | 0.00 | 0.00 | 0.00 | 99 | 1023.4 |
| 20260902152529 | 79 | 90 | 1.7 | 2.6 | 0.00 | 0.00 | 0.00 | 96 | 1022.9 |
| 20260902151516 | 80 | 303 | 1.7 | 3.5 | 0.00 | 0.00 | 0.00 | 94 | 1022.6 |
| 20260902150521 | 80 | 1.7 | 1.7 | 0.00 | 0.00 | 0.00 | 93 | 1022.5 | |
| 20260902145526 | 80 | 2.6 | 3.5 | 0.00 | 0.00 | 0.00 | 92 | 1022.2 | |
| 20260902144530 | 80 | 332 | 1.7 | 2.6 | 0.00 | 0.00 | 0.00 | 92 | 1022.2 |
| 20260902143518 | 79 | 167 | 1.7 | 2.6 | 0.00 | 0.00 | 0.00 | 93 | 1022.2 |
| 20260902142543 | 79 | 177 | 1.7 | 2.6 | 0.00 | 0.00 | 0.00 | 93 | 1022.4 |
| 20260902141527 | 79 | 90 | 1.7 | 2.6 | 0.00 | 0.00 | 0.00 | 93 | 1022.2 |
| 20260902140532 | 78 | 200 | 0.9 | 1.7 | 0.00 | 0.00 | 0.00 | 95 | 1022.2 |
| 20260902135519 | 78 | 265 | 1.7 | 2.6 | 0.00 | 0.00 | 0.00 | 94 | 1022.2 |
| 20260902134524 | 78 | 134 | 1.7 | 2.6 | 0.00 | 0.00 | 0.00 | 95 | 1022.0 |
| 20260902133529 | 77 | 248 | 0.0 | 1.7 | 0.00 | 0.00 | 0.00 | 96 | 1022.2 |
| 20260902132517 | 76 | 225 | 0.9 | 1.7 | 0.00 | 0.00 | 0.00 | 97 | 1022.3 |
| 20260902131521 | 76 | 217 | 0.9 | 1.7 | 0.00 | 0.00 | 0.00 | 99 | 1022.4 |
| 20260902130526 | 75 | 299 | 0.9 | 1.7 | 0.00 | 0.00 | 0.00 | 99 | 1022.4 |
| 20260902125531 | 74 | 265 | 1.7 | 1.7 | 0.00 | 0.00 | 0.00 | 99 | 1022.2 |
| 20260902124538 | 72 | 0.0 | 0.0 | 0.00 | 0.00 | 0.00 | 99 | 1022.0 | |
| 20260902123523 | 71 | 0.0 | 0.0 | 0.00 | 0.00 | 0.00 | 99 | 1021.9 | |
| 20260902122528 | 70 | 0.0 | 0.0 | 0.00 | 0.00 | 0.00 | 99 | 1021.9 | |
| 20260902121533 | 69 | 0.0 | 0.0 | 0.00 | 0.00 | 0.00 | 99 | 1021.9 | |
| 20260902120520 | 69 | 0.0 | 0.0 | 0.00 | 0.00 | 0.00 | 99 | 1021.9 | |
| 20260902115525 | 69 | 0.0 | 0.0 | 0.00 | 0.00 | 0.00 | 99 | 1021.8 | |
| 20260902114530 | 68 | 0.0 | 0.0 | 0.00 | 0.00 | 0.00 | 99 | 1021.7 | |
| 20260902113516 | 68 | 0.0 | 0.0 | 0.00 | 0.00 | 0.00 | 99 | 1021.7 | |
| 20260902112521 | 68 | 0.0 | 0.0 | 0.00 | 0.00 | 0.00 | 99 | 1021.6 | |
| 20260902111606 | 68 | 0.0 | 0.0 | 0.00 | 0.00 | 0.00 | 99 | 1021.5 | |
| 20260902110531 | 68 | 0.0 | 0.0 | 0.00 | 0.00 | 0.00 | 99 | 1021.5 | |
| 20260902105518 | 68 | 0.0 | 0.0 | 0.00 | 0.00 | 0.00 | 99 | 1021.5 | |
| 20260902104523 | 68 | 0.0 | 0.0 | 0.00 | 0.00 | 0.00 | 99 | 1021.7 | |
| 20260902103528 | 68 | 277 | 0.0 | 1.7 | 0.00 | 0.00 | 0.00 | 99 | 1021.7 |
| 20260902102554 | 68 | 0.0 | 0.0 | 0.00 | 0.00 | 0.00 | 99 | 1021.8 | |
| 20260902101520 | 68 | 0.0 | 0.0 | 0.00 | 0.00 | 0.00 | 99 | 1021.9 | |
| 20260902100525 | 68 | 0.0 | 0.0 | 0.00 | 0.00 | 0.00 | 99 | 1021.9 | |
| 20260902095530 | 68 | 0.0 | 0.0 | 0.00 | 0.00 | 0.00 | 99 | 1021.7 | |
| 20260902094517 | 68 | 0.0 | 0.0 | 0.00 | 0.00 | 0.00 | 99 | 1021.4 | |
| 20260902093521 | 69 | 0.0 | 0.0 | 0.00 | 0.00 | 0.00 | 99 | 1021.5 | |
| 20260902092527 | 69 | 0.0 | 0.9 | 0.00 | 0.00 | 0.00 | 99 | 1021.5 | |
| 20260902091531 | 68 | 268 | 0.0 | 1.7 | 0.00 | 0.00 | 0.00 | 99 | 1021.5 |
| 20260902090539 | 68 | 0.0 | 0.0 | 0.00 | 0.00 | 0.00 | 99 | 1021.5 | |
| 20260902085523 | 68 | 0.0 | 0.0 | 0.00 | 0.00 | 0.00 | 99 | 1021.4 | |
| 20260902084529 | 68 | 0.0 | 0.0 | 0.00 | 0.00 | 0.00 | 99 | 1021.1 | |
| 20260902083516 | 68 | 0.0 | 0.0 | 0.00 | 0.00 | 0.00 | 99 | 1021.1 | |
| 20260902082521 | 68 | 0.0 | 0.0 | 0.00 | 0.00 | 0.00 | 99 | 1020.9 | |
| 20260902081526 | 69 | 0.0 | 0.0 | 0.00 | 0.00 | 0.00 | 99 | 1020.9 | |
| 20260902080531 | 69 | 172 | 0.9 | 2.6 | 0.00 | 0.00 | 0.00 | 99 | 1020.9 |